Palermo, Italy

7:33 PM CEST on October 17, 2017 (GMT +0200)
Punta Raisi

Weather History for LICJ - May, 2013

Change the Weather History Date:

Wednesday, May 22, 2013

  Actual Average Record
Temperature  
Mean Temperature 76 °F -  
Max Temperature 89 °F 75 °F 89 °F (2006)
Min Temperature 62 °F 65 °F 50 °F (2016)
Cooling Degree Days 10    
Growing Degree Days 26 (Base 50)    
Moisture  
Dew Point 54 °F    
Average Humidity 54    
Maximum Humidity 88    
Minimum Humidity 24    
Precipitation  
Precipitation 0.00 in 0.02 in - ()
Sea Level Pressure  
Sea Level Pressure 29.51 in    
Wind  
Wind Speed 15 mph ()    
Max Wind Speed 36 mph    
Max Gust Speed 43 mph    
Visibility 5.4 miles    
Events Rain    
Averages and records for this station are not official NWS values.
T = Trace of Precipitation, MM = Missing Value Source: Averaged Metar Reports

Daily Weather History Graph

Daily Weather History Graph

Search for Another Location

Airport or City:

Trip Planner

Search our weather history database for the weather conditions in past years. The results will help you decide how hot, cold, wet, or windy it might be!

Date:

Astronomy

May. 22, 2013 Rise Set
Actual Time 5:51 AM CEST 8:17 PM CEST
Civil Twilight 5:21 AM CEST 8:47 PM CEST
Nautical Twilight 4:43 AM CEST 9:25 PM CEST
Astronomical Twilight 4:02 AM CEST 10:06 PM CEST
Moon 5:22 PM CEST (5/22) 3:42 AM CEST (5/22)
Length of Visible Light 15h 26m
Length of Day
14h 26m
Waxing Gibbous, 89% of the Moon is Illuminated
May 22
Waxing Gibbous
May 25
Full
May 31
Last Quarter
Jun 8
New
Jun 16
First Quarter

Hourly Weather History & Observations

Time (CEST) Temp. Heat Index Dew Point Humidity Pressure Visibility Wind Dir Wind Speed Gust Speed Precip Events Conditions
12:20 AM 75.2 °F - 50.0 °F 41% 29.71 in 6.2 mi SW 15.0 mph - N/A   Partly Cloudy
12:50 AM 73.4 °F - 55.4 °F 53% 29.68 in 6.2 mi WSW 15.0 mph - N/A   Partly Cloudy
1:20 AM 77.0 °F - 46.4 °F 34% 29.68 in 6.2 mi SSW 8.1 mph - N/A   Partly Cloudy
1:50 AM 73.4 °F - 53.6 °F 50% 29.68 in 6.2 mi West 13.8 mph - N/A   Partly Cloudy
2:20 AM 77.0 °F - 46.4 °F 34% 29.65 in 6.2 mi East 10.4 mph - N/A   Partly Cloudy
2:50 AM 71.6 °F - 57.2 °F 60% 29.65 in 6.2 mi North 6.9 mph - N/A   Partly Cloudy
3:50 AM 71.6 °F - 50.0 °F 46% 29.62 in 6.2 mi NE 11.5 mph - N/A   Partly Cloudy
4:50 AM 71.6 °F - 55.4 °F 57% 29.62 in 6.2 mi ENE 5.8 mph - N/A   Partly Cloudy
5:20 AM 69.8 °F - 57.2 °F 64% 29.59 in 6.2 mi NNE 9.2 mph - N/A   Partly Cloudy
5:50 AM 71.6 °F - 50.0 °F 46% 29.59 in 6.2 mi ENE 11.5 mph - N/A   Partly Cloudy
6:20 AM 69.8 °F - 57.2 °F 64% 29.59 in - Variable 4.6 mph - N/A   Clear
6:50 AM 73.4 °F - 53.6 °F 50% 29.56 in - Variable 1.2 mph - N/A   Clear
7:20 AM 73.4 °F - 53.6 °F 50% 29.56 in - NE 5.8 mph - N/A   Clear
7:50 AM 80.6 °F - 48.2 °F 32% 29.56 in - Variable 4.6 mph 18.4 mph N/A   Clear
8:20 AM 86.0 °F - 46.4 °F 25% 29.53 in - South 27.6 mph 42.6 mph N/A   Clear
8:50 AM 86.0 °F - 48.2 °F 27% 29.53 in - South 25.3 mph - N/A   Clear
9:20 AM 86.0 °F - 48.2 °F 27% 29.50 in - South 19.6 mph 33.4 mph N/A   Clear
9:50 AM 86.0 °F - 50.0 °F 29% 29.50 in - South 19.6 mph 35.7 mph N/A   Clear
10:20 AM 86.0 °F - 50.0 °F 29% 29.47 in - South 23.0 mph 35.7 mph N/A   Clear
10:50 AM 87.8 °F - 51.8 °F 29% 29.47 in - South 23.0 mph - N/A   Clear
11:20 AM 87.8 °F - 50.0 °F 27% 29.47 in - South 20.7 mph - N/A   Clear
11:50 AM 86.0 °F 84.2 °F 53.6 °F 33% 29.44 in - SSE 20.7 mph 33.4 mph N/A   Clear
12:20 PM 89.6 °F - 48.2 °F 24% 29.44 in - Variable 9.2 mph 23.0 mph N/A   Clear
12:50 PM 89.6 °F - 50.0 °F 26% 29.42 in - South 17.3 mph 33.4 mph N/A   Clear
1:20 PM 87.8 °F - 51.8 °F 29% 29.42 in - South 19.6 mph 34.5 mph N/A   Clear
1:50 PM 80.6 °F 80.5 °F 55.4 °F 42% 29.42 in - SW 31.1 mph - N/A   Clear
2:20 PM 80.6 °F 80.3 °F 53.6 °F 39% 29.42 in - SSW 31.1 mph - N/A   Sand
2:50 PM 75.2 °F - 60.8 °F 61% 29.42 in 2.5 mi SW 31.1 mph - N/A   Sand
3:20 PM 75.2 °F - 60.8 °F 61% 29.42 in 3.1 mi SW 28.8 mph - N/A   Sand
3:50 PM 73.4 °F - 59.0 °F 61% 29.42 in 6.2 mi SW 25.3 mph - N/A   Scattered Clouds
4:20 PM 69.8 °F - 57.2 °F 64% 29.42 in 6.2 mi WSW 27.6 mph - N/A   Scattered Clouds
4:50 PM 69.8 °F - 57.2 °F 64% 29.42 in 6.2 mi SW 19.6 mph - N/A   Mostly Cloudy
5:20 PM 69.8 °F - 55.4 °F 60% 29.42 in 6.2 mi SSW 16.1 mph - N/A   Mostly Cloudy
5:50 PM 64.4 °F - 59.0 °F 83% 29.42 in 1.6 mi WSW 21.9 mph - N/A Rain Heavy Rain
6:20 PM 64.4 °F - 59.0 °F 83% 29.42 in 6.2 mi WSW 10.4 mph - N/A Rain Light Rain
6:50 PM 62.6 °F - 59.0 °F 88% 29.42 in 3.1 mi SW 21.9 mph - N/A Rain Light Rain
7:20 PM 64.4 °F - 59.0 °F 83% 29.42 in 6.2 mi SSW 18.4 mph - N/A   Scattered Clouds
7:50 PM 64.4 °F - 55.4 °F 73% 29.42 in 6.2 mi South 24.2 mph - N/A   Scattered Clouds
8:20 PM 64.4 °F - 55.4 °F 73% 29.44 in 6.2 mi South 20.7 mph - N/A   Scattered Clouds
8:50 PM 64.4 °F - 57.2 °F 77% 29.44 in 6.2 mi South 19.6 mph - N/A   Scattered Clouds
9:20 PM 66.2 °F - 60.8 °F 83% 29.47 in 4.3 mi SW 20.7 mph - N/A   Mostly Cloudy
9:50 PM 66.2 °F - 62.6 °F 88% 29.50 in 5.6 mi West 33.4 mph - N/A   Mostly Cloudy
10:20 PM 66.2 °F - 60.8 °F 83% 29.53 in 4.3 mi West 34.5 mph - N/A   Mostly Cloudy
10:50 PM 66.2 °F - 59.0 °F 78% 29.56 in 4.3 mi West 35.7 mph - N/A   Mostly Cloudy
11:20 PM 66.2 °F - 59.0 °F 78% 29.56 in 5.0 mi West 31.1 mph - N/A   Mostly Cloudy
11:50 PM 66.2 °F - 55.4 °F 68% 29.59 in 5.6 mi West 31.1 mph - N/A   Mostly Cloudy